Regional Weather Roundup
Issued by NWS Cleveland, OH

Home | Current Version | Previous Version | Graphics & Text | Print | Product List | Glossary Off
Versions: 1 2 3 4 5 6 7 8 9 10 11 12 13 14 15 16 17 18 19 20 21 22 23 24 25 26 27 28 29 30 31 32 33 34 35 36 37 38 39 40 41 42 43 44 45 46 47 48 49 50

000
ASUS41 KCLE 240612
RWRCLE
OHIO REGIONAL WEATHER ROUNDUP
NATIONAL WEATHER SERVICE WILMINGTON, OH
200 AM EDT TUE OCT 24 2017

NOTE: "FAIR" INDICATES FEW OR NO CLOUDS BELOW 12,000 FEET WITH NO
SIGNIFICANT WEATHER AND/OR OBSTRUCTIONS TO VISIBILITY.

OHZ001>008-015>018-024>027-034-035-043-044-240700-
   NORTHWEST OHIO

CITY           SKY/WX    TMP DP  RH WIND       PRES   REMARKS
DEFIANCE       CLOUDY    48  45  89 CALM      29.59F
FINDLAY        LGT RAIN  50  45  83 W14       29.61R
TOLEDO EXPRESS LGT RAIN  49  48  97 W23       29.59R
TOLEDO EXEC    LGT RAIN  51  46  83 W18G29    29.59R
LIMA           CLOUDY    48  46  93 SW8       29.63F
$$

OHZ009>014-019>023-028>033-038-089-240700-
   NORTHEAST OHIO

CITY           SKY/WX    TMP DP  RH WIND       PRES   REMARKS
CLE-HOPKINS    CLOUDY    54  52  93 SW17      29.60R
CLE-LAKEFRONT  CLOUDY    56  52  86 SW21G29   29.56R
CUY CO. ARPT   NOT AVBL
LORAIN-ELYRIA  CLOUDY    52  46  80 W14G22    29.60R
ASHTABULA      CLOUDY    58  54  86 S20G29    29.57S
AKRON-CANTON   CLOUDY    57  51  80 SW22G30   29.60S
WOOSTER        LGT RAIN  52  50  93 W12G25    29.62R
MANSFIELD      LGT RAIN  50  49  96 W12G24    29.62R FOG
YOUNGSTOWN     CLOUDY    57  53  86 S12G21    29.59S
$$

OHZ042-051>053-060>062-070>072-077>081-240700-
  SOUTHWEST OHIO

CITY           SKY/WX    TMP DP  RH WIND       PRES   REMARKS
CINC-COVINGTON CLOUDY    47  47 100 S10       29.74F
CINC-LUNKEN    CLOUDY    48  46  93 S8        29.77S
HAMILTON       MOCLDY    48  46  93 CALM      29.75S
DAYTON         CLOUDY    47  47 100 SW16      29.71R
WRIGHT-PAT AFB PTCLDY    48  48 100 SW14      29.71R
DAYTON GENERAL MOCLDY    47  44  90 SW14G22   29.72R
WILMINGTON     FAIR      48  47  96 SW13      29.73R
$$

OHZ036-037-039>041-045>050-054>059-063>069-073>076-082>088-240700-
  CENTRAL AND SOUTHEAST OHIO

CITY           SKY/WX    TMP DP  RH WIND       PRES   REMARKS
COLUMBUS       CLOUDY    52  49  89 W12       29.68R
OSU AIRPORT    CLOUDY    50  48  93 W9        29.67S
BOLTON FIELD   CLOUDY    49  46  87 W3        29.69S
RICKENBACK AFB CLOUDY    50  47  90 W7        29.69R
NEWARK         LGT RAIN  53  50  89 W6        29.68R
MARION         LGT RAIN  50  46  86 W17G23    29.65R
LANCASTER      CLOUDY    51  50  97 W10G22    29.71R
ZANESVILLE     CLOUDY    54  51  90 SW10      29.67R
NEW PHILLY     CLOUDY    57  52  83 SW10G22   29.65R
$$




USA.gov is the U.S. government's official web portal to all federal, state and local government web resources and services.